Location: Tucson
(32.2217°N, 110.9265°W)
Time: 06:18:16
(UTC-07:00)

Tiros 1 despin weight - All Passes

Search period start: 25 October 2021 00:00
Search period end: 04 November 2021 00:00
Orbit: 592 x 641 km, 48.2° (Epoch: 24 October)

Date Brightness Start Highest point End Pass type
(mag) Time Alt. Az. Time Alt. Az. Time Alt. Az.
25 Oct - 03:25:05 10° SSW 03:29:32 52° SE 03:34:04 10° ENE visible
25 Oct - 05:07:15 10° W 05:11:17 28° NNW 05:15:20 10° NNE visible
25 Oct - 06:52:16 10° NNW 06:54:04 12° N 06:55:53 10° NNE daylight
25 Oct - 08:35:09 10° NNW 08:37:20 13° NNE 08:39:30 10° NE daylight
25 Oct - 10:15:42 10° NW 10:19:59 35° NNE 10:24:14 10° E daylight
25 Oct - 11:57:14 10° WNW 12:01:33 38° SW 12:05:48 10° SSE daylight
26 Oct - 02:02:01 10° SSE 02:04:37 15° SE 02:07:14 10° E night (unlit)
26 Oct - 03:41:06 10° SW 03:45:42 75° NW 03:50:21 10° NE visible
26 Oct - 05:24:34 10° WNW 05:27:51 19° NNW 05:31:09 10° NNE visible
26 Oct - 07:09:45 10° NNW 07:10:57 11° N 07:12:08 10° NNE daylight
26 Oct - 08:50:57 10° NNW 08:54:05 17° NNE 08:57:12 10° ENE daylight
26 Oct - 10:31:41 10° NW 10:36:20 65° NE 10:40:56 10° ESE daylight
26 Oct - 12:14:23 10° W 12:17:30 18° SW 12:20:35 10° S daylight
27 Oct - 02:16:28 10° SSW 02:20:32 32° SE 02:24:40 10° ENE night (unlit)
27 Oct - 03:57:41 10° WSW 04:02:01 39° NNW 04:06:23 10° NE visible
27 Oct - 05:42:14 10° NW 05:44:35 14° NNW 05:46:57 10° NNE visible
27 Oct - 07:26:12 10° NNW 07:27:50 12° N 07:29:28 10° NNE daylight
27 Oct - 09:06:46 10° NNW 09:10:42 26° NNE 09:14:36 10° E daylight
27 Oct - 10:47:54 10° WNW 10:52:31 62° SW 10:57:04 10° SE daylight
28 Oct - 02:32:03 10° SW 02:36:35 71° SE 02:41:13 10° NE night (unlit)
28 Oct - 04:14:45 10° W 04:18:29 24° NNW 04:22:15 10° NNE visible
28 Oct - 05:59:57 10° NNW 06:01:25 11° N 06:02:52 10° NNE visible
28 Oct - 07:42:04 10° NNW 07:44:39 14° NNE 07:47:13 10° NE daylight
28 Oct - 09:22:39 10° NW 09:27:09 44° NE 09:31:35 10° ESE daylight
28 Oct - 11:04:32 10° WNW 11:08:32 28° SW 11:12:30 10° S daylight
29 Oct - 01:08:13 10° S 01:11:35 20° SE 01:14:58 10° E night (unlit)
29 Oct - 02:48:18 10° WSW 02:52:48 57° NW 02:57:23 10° NE visible
29 Oct - 04:32:13 10° WNW 04:35:07 16° NNW 04:38:03 10° NNE visible
29 Oct - 06:17:04 10° NNW 06:18:18 11° N 06:19:32 10° NNE visible
29 Oct - 07:57:52 10° NNW 08:01:20 20° NNE 08:04:49 10° ENE daylight
29 Oct - 09:38:43 10° NW 09:43:26 86° NE 09:48:04 10° SE daylight
29 Oct - 11:22:20 10° W 11:24:26 13° SW 11:26:33 10° SSW daylight
30 Oct - 01:23:14 10° SSW 01:27:32 44° SE 01:31:56 10° ENE night (unlit)
30 Oct - 03:05:05 10° W 03:09:10 31° NNW 03:13:20 10° NNE visible
30 Oct - 04:49:58 10° NW 04:51:54 12° N 04:53:52 10° NNE visible
30 Oct - 06:33:10 10° NNW 06:35:10 12° N 06:37:09 10° NE daylight
30 Oct - 08:13:41 10° NNW 08:17:53 31° NNE 08:22:03 10° E daylight
30 Oct - 09:55:04 10° WNW 09:59:32 45° SW 10:03:57 10° SSE daylight
31 Oct - 00:00:48 10° SSE 00:02:40 12° SE 00:04:32 10° ESE night (unlit)
31 Oct - 01:39:06 10° SW 01:43:39 86° NW 01:48:18 10° NE night (unlit)
31 Oct - 03:22:19 10° WNW 03:25:43 20° NNW 03:29:09 10° NNE visible
31 Oct - 05:07:34 10° NNW 05:08:45 11° N 05:09:57 10° NNE visible
31 Oct - 06:48:59 10° NNW 06:51:56 16° NNE 06:54:52 10° ENE daylight
31 Oct - 08:29:38 10° NW 08:34:16 57° NE 08:38:51 10° ESE daylight
31 Oct - 10:12:00 10° W 10:15:30 21° SW 10:18:59 10° S daylight
01 Nov - 00:14:43 10° S 00:18:33 27° SE 00:22:26 10° ENE night (unlit)
01 Nov - 01:55:35 10° WSW 01:59:55 44° NW 02:04:21 10° NE night (unlit)
01 Nov - 03:39:56 10° NW 03:42:25 14° NNW 03:44:56 10° NNE visible
01 Nov - 05:24:12 10° NNW 05:25:39 11° N 05:27:04 10° NNE visible
01 Nov - 07:04:46 10° NNW 07:08:34 24° NNE 07:12:21 10° E daylight
01 Nov - 08:45:48 10° NW 08:50:28 72° SW 08:55:07 10° SE daylight
02 Nov - 00:30:08 10° SW 00:34:34 60° SE 00:39:06 10° ENE night (unlit)
02 Nov - 02:12:33 10° W 02:16:22 25° NNW 02:20:14 10° NNE night (unlit)
02 Nov - 03:57:41 10° NNW 03:59:13 11° N 04:00:46 10° NNE visible
02 Nov - 05:40:07 10° NNW 05:42:28 14° NNE 05:44:50 10° NE visible
02 Nov - 07:20:38 10° NW 07:25:02 39° NNE 07:29:25 10° ESE daylight
02 Nov - 09:02:19 10° WNW 09:06:32 33° SW 09:10:42 10° SSE daylight
02 Nov - 23:06:41 10° S 23:09:37 17° SE 23:12:33 10° E night (unlit)
03 Nov - 00:46:15 10° WSW 00:50:44 65° NW 00:55:18 10° NE night (unlit)
03 Nov - 02:29:57 10° WNW 02:32:58 17° NNW 02:36:01 10° NNE night (unlit)
03 Nov - 04:15:01 10° NNW 04:16:06 11° N 04:17:11 10° NNE visible
03 Nov - 05:55:53 10° NNW 05:59:11 19° NNE 06:02:29 10° ENE visible
03 Nov - 07:36:39 10° NW 07:41:20 75° NE 07:46:01 10° SE daylight
03 Nov - 09:19:42 10° W 09:22:27 15° SW 09:25:12 10° SSW daylight
03 Nov - 23:21:25 10° SSW 23:25:32 37° SE 23:29:45 10° ENE night (unlit)
